Weather History for Culdrose, United Kingdom

Change the Weather History Date:

Wednesday, August 15, 2012

  Actual Average Record
Temperature  
Mean Temperature 64 °F -  
Max Temperature 66 °F 62 °F 69 °F (1996)
Min Temperature 60 °F 53 °F 46 °F (2008)
Degree Days  
Heating Degree Days 1    
Growing Degree Days 14 (Base 50)    
Moisture  
Dew Point 61 °F    
Average Humidity 90    
Maximum Humidity 100    
Minimum Humidity 81    
Precipitation  
Precipitation 0.20 in - - ()
Sea Level Pressure  
Sea Level Pressure 29.52 in    
Wind  
Wind Speed 18 mph ()    
Max Wind Speed 29 mph    
Max Gust Speed 55 mph    
Visibility 5.2 miles    
Events Rain    
Averages and records for this station are not official NWS values.
T = Trace of Precipitation, MM = Missing Value Source: Averaged Metar Reports

Daily Weather History Graph

Daily Weather History Graph

Search for Another Location

Airport:

Trip Planner

Search our weather history database for the weather conditions in past years. The results will help you decide how hot, cold, wet, or windy it might be!

Date:

Astronomy

Aug. 15, 2012 Rise Set
Actual Time 6:10 AM BST 8:38 PM BST
Civil Twilight 5:34 AM BST 9:14 PM BST
Nautical Twilight 4:49 AM BST 10:00 PM BST
Astronomical Twilight 3:55 AM BST 10:52 PM BST
Moon 3:46 AM BST (8/15) 7:06 PM BST (8/15)
Length of Visible Light 15h 39m
Length of Day
14h 27m
Waning Crescent, 5% of the Moon is Illuminated
Aug 15
Waning Crescent
Aug 17
New
Aug 24
First Quarter
Aug 31
Full
Sep 8
Last Quarter

Hourly Weather History & Observations

Time (BST) Temp. Dew Point Humidity Pressure Visibility Wind Dir Wind Speed Gust Speed Precip Events Conditions
12:50 AM 65 °F 64 °F 93% 29.65 in 6 mi SE 16.1 mph - -   Mist
12:50 AM 64.4 °F 64.4 °F 100% 29.62 in 6.2 mi SE 16.1 mph - N/A   Mostly Cloudy
1:50 AM 64.4 °F 62.6 °F 94% 29.59 in 6.2 mi ESE 15.0 mph - N/A   Scattered Clouds
2:50 AM 64.4 °F 62.6 °F 94% 29.53 in 5.0 mi ESE 17.3 mph 28.8 mph N/A   Mostly Cloudy
3:50 AM 64 °F 63 °F 94% 29.52 in 5 mi ESE 17.3 mph - -   Mist
3:50 AM 64.4 °F 62.6 °F 94% 29.50 in 5.0 mi ESE 17.3 mph - N/A   Partly Cloudy
4:50 AM 64.4 °F 62.6 °F 94% 29.47 in 6.2 mi ESE 20.7 mph 33.4 mph N/A   Mostly Cloudy
5:50 AM 64.4 °F 62.6 °F 94% 29.44 in 3.1 mi SE 19.6 mph 31.1 mph N/A Rain Rain
6:50 AM 64 °F 63 °F 94% 29.45 in 2 mi SE 16.1 mph - - Rain Heavy Rain
6:50 AM 64.4 °F 62.6 °F 94% 29.44 in 1.9 mi SE 16.1 mph 27.6 mph N/A Rain Heavy Rain
7:50 AM 62.6 °F 62.6 °F 100% 29.44 in 3.7 mi SSE 18.4 mph 33.4 mph N/A Rain Rain
8:50 AM 62.6 °F 62.6 °F 100% 29.42 in 6.2 mi South 17.3 mph 32.2 mph N/A Rain Light Rain
9:50 AM 63 °F 59 °F 83% 29.45 in 7 mi South 16.1 mph - - Rain Light Rain
9:50 AM 62.6 °F 59.0 °F 88% 29.44 in 6.2 mi South 16.1 mph 29.9 mph N/A   Haze
10:50 AM 62.6 °F 59.0 °F 88% 29.44 in 6.2 mi South 21.9 mph 42.6 mph N/A   Haze
11:50 AM 64.4 °F 60.8 °F 88% 29.44 in 6.2 mi SSW 28.8 mph 43.7 mph N/A   Haze
12:50 PM 65 °F 60 °F 81% 29.48 in 5 mi SSW 20.7 mph - - Rain Light Rain Showers
12:50 PM 64.4 °F 60.8 °F 88% 29.47 in 5.0 mi SSW 20.7 mph 38.0 mph N/A Rain Light Rain Showers
1:50 PM 64.4 °F 60.8 °F 88% 29.50 in 6.2 mi SSW 23.0 mph 39.1 mph N/A   Haze
2:50 PM 66.2 °F 60.8 °F 83% 29.50 in 6.2 mi SSW 25.3 mph 42.6 mph N/A   Scattered Clouds
3:50 PM 64 °F 60 °F 84% 29.50 in 7 mi SSW 25.3 mph - - Rain Light Rain Showers
3:50 PM 64.4 °F 60.8 °F 88% 29.50 in 6.2 mi SSW 25.3 mph 43.7 mph N/A   Scattered Clouds
4:50 PM 62.6 °F 60.8 °F 94% 29.50 in 3.7 mi SSW 27.6 mph 47.2 mph N/A   Mostly Cloudy
5:50 PM 62.6 °F 60.8 °F 94% 29.47 in 3.7 mi SSW 26.5 mph 55.2 mph N/A   Mostly Cloudy
6:50 PM 63 °F 59 °F 83% 29.54 in 4 mi SSW 27.6 mph - -   Partly Cloudy
6:50 PM 62.6 °F 59.0 °F 88% 29.53 in 3.7 mi SSW 27.6 mph 51.8 mph N/A   Scattered Clouds
7:50 PM 62.6 °F 57.2 °F 82% 29.56 in 3.7 mi SW 27.6 mph 47.2 mph N/A   Scattered Clouds
8:50 PM 62.6 °F 57.2 °F 82% 29.59 in 6.2 mi SW 25.3 mph 41.4 mph N/A   Haze
9:50 PM 62 °F 59 °F 85% 29.63 in 7 mi SW 24.2 mph - -   Haze
9:50 PM 62.6 °F 59.0 °F 88% 29.62 in 6.2 mi SW 24.2 mph 39.1 mph N/A   Haze
10:50 PM 62.6 °F 59.0 °F 88% 29.65 in 6.2 mi SW 20.7 mph 38.0 mph N/A   Haze
11:50 PM 60.8 °F 59.0 °F 94% 29.65 in 3.1 mi SW 23.0 mph 35.7 mph N/A Rain Rain Showers